Regional Weather Roundup
Issued by NWS Charleston, SC

Current Version | Previous Version | Text Only | Print | Product List | Glossary Off
Versions: 1 2 3 4 5 6 7 8 9 10 11 12 13 14 15 16 17 18 19 20 21 22 23 24 25 26 27 28 29 30 31 32 33 34 35 36 37 38 39 40 41 42 43 44 45 46 47 48 49 50

000
ASUS42 KCHS 260810
RWRCHS

REGIONAL WEATHER ROUNDUP
NATIONAL WEATHER SERVICE CHARLESTON SC
300 AM EST FRI DEC 26 2014

NOTE: "FAIR" INDICATES FEW OR NO CLOUDS BELOW 12,000 FEET WITH NO
SIGNIFICANT WEATHER AND/OR OBSTRUCTIONS TO VISIBILITY.

NOT ALL STATIONS ARE QUALITY CONTROLLED BY THE NATIONAL
WEATHER SERVICE. USE DATA WITH CAUTION...ESPECIALLY
DEWPOINT OBSERVATIONS.

SCZ027-030-031-034>040-042>050-260900-
...SOUTHEAST SOUTH CAROLINA...

CITY           SKY/WX    TMP DP  RH WIND       PRES   REMARKS
N CHARLESTON   CLEAR     40  38  93 CALM      30.28R
WATERFRONT PRK   N/A     46 N/A N/A CALM        N/A
MOUNT PLEASANT FAIR      39  39 100 CALM      30.27S
PINOPOLIS      NOT AVBL
MONCKS CORNER  FAIR      39  37  93 CALM      30.27R
SUMMERVILLE    FAIR      37  37 100 CALM      30.28S
BEAUFORT MCAS  CLEAR     39  37  92 CALM      30.28R
BEAUFORT ARPT  FAIR      41  41 100 CALM      30.27S
HILTON HEAD IS CLEAR     39  39 100 CALM      30.29R
WALTERBORO     SUNNY     36 N/A N/A CALM      30.28R
ALLENDALE      FAIR      37  37 100 CALM      30.27R

...SOUTHERN MIDLANDS AND PEE DEE...

CITY           SKY/WX    TMP DP  RH WIND       PRES   REMARKS
GEORGETOWN     NOT AVBL
KINGSTREE      NOT AVBL
ORANGEBURG     CLEAR     37  34  89 CALM      30.26F FOG
BARNWELL         N/A     32  32 100 CALM      30.27S
AIKEN          FAIR      32  32 100 CALM      30.29S
MANNING        FAIR      36 N/A N/A CALM      30.27S
COLUMBIA       CLEAR     33  30  88 W3        30.27R
SUMTER         CLEAR     36  34  91 CALM      30.25F
FLORENCE       CLEAR     38  36  92 CALM      30.27S
MYRTLE BEACH   CLEAR     41  37  87 CALM      30.28R
N MYRTLE BEACH CLEAR     38  37  97 CALM      30.27R

$$

GAZ063-065-086>088-099>101-113>116-118-119-134>141-150-260900-
...SOUTHEAST GEORGIA...

CITY           SKY/WX    TMP DP  RH WIND       PRES   REMARKS
SAVANNAH ARPT  CLEAR     39  36  89 CALM      30.28R
HUNTER AAF     CLEAR     38  38 100 NW2       30.26R
FORT STEWART   CLEAR     36  35  94 CALM      30.26R
STATESBORO     CLEAR     34  34 100 CALM      30.28R
SYLVANIA       MOSUNNY   36  36 100 CALM      30.28R
CLAXTON        FAIR      36  36 100 CALM      30.28R FOG

...CSRA...CENTRAL AND FAR SOUTHEAST GEORGIA...

CITY           SKY/WX    TMP DP  RH WIND       PRES   REMARKS
THOMSON        CLEAR     32  32 100 CALM      30.32R
AUGUSTA-BUSH   MOCLDY    31  30  96 CALM      30.28S FOG
AUGUSTA-DANIEL CLEAR     40  37  89 CALM      30.27R
SWAINSBORO     FAIR     N/A N/A N/A CALM      30.28R
VIDALIA        CLEAR     37  37 100 CALM      30.27R
EASTMAN        FOG       34  34 100 CALM      30.30S VSB<1/4
HAZLEHURST     FAIR      39  39 100 CALM      30.27R
ALMA           CLEAR     36  35  96 CALM      30.27R FOG
WAYCROSS       CLEAR     41  40  98 CALM      30.27R
JESUP          FAIR      37  37 100 CALM      30.28R
BAXLEY         FAIR      41  39  93 CALM      30.27R
BRUNSWICK      CLEAR     37  37 100 CALM      30.28R
SAINT SIMONS   CLEAR     42  39  89 CALM      30.26S

$$

SCZ027-028-034-036>038-045-046-048>050-GAZ119-141-260900-
...LAKE AND SUPPLEMENTAL COASTAL OBSERVATIONS...

STATION/POSITION TIME  TEMP    WIND        PRES    WAVE   SWELL
                       AIR SEA DIR/SP/G            HT/PER HT/PER/DIR
                 (UTC) (F)     (DEG/KT/KT) (MB)    (FT/S) (FT/S/D)
UPR LAKE MARION  NOT AVBL
WINYAH BAY       0700   44     330/  5     1024.0R
LAKE MURRAY      0700   41        CALM     1024.0S
ACE BASIN NERRS  NOT AVBL
FORT PULASKI     0800   47 56  300/  3/  3 1025.5R
SAPELO ISLAND    0700   40      30/  2     1024.0S

$$

ANZ835-935-AMZ111-154-330-350-352-354-370-450-454-472-260900-
...C-MAN AND BUOY OBSERVATIONS...

STATION/POSITION TIME  TEMP    WIND        PRES    WAVE   SWELL
                       AIR SEA DIR/SP/G            HT/PER HT/PER/DIR
                 (UTC) (F)     (DEG/KT/KT) (MB)    (FT/S) (FT/S/D)
BUOY 41004       0800   60 71   40/  8/ 12 1024.3R   2/ 8   2/ 8
BUOY 41008       0800   56 58   30/ 10/ 12 1024.5R   1/ 9   2/100/ 9
FOLLY BEACH CMAN 0700   47     310/  3/  4 1025.2R
CAPERS NEARSHORE 0700   51      10/ 10/ 12   N/A
FRIPP NEARSHORE  NOT AVBL


STATION/POSITION TIME  TEMP    WIND        PRES    WAVE   SWELL
                       AIR SEA DIR/SP/G            HT/PER HT/PER/DIR
                 (UTC) (F)     (DEG/KT/KT) (MB)    (FT/S) (FT/S/D)
5E ST. MARYS GA  0800      61                N/A     2/11
FRYING PAN BUOY  0800   58 70   40/  8/ 12 1024.9R   3/ 8   3/150/ 8
BUOY 41025       0800   54                 1024.6R   4/ 7
CAPE LOOKOUT NC  0700   51      10/  6/  7 1024.3R
BUOY 41002       0726   67 73   30/ 10/ 12 1023.5R   6/ 8   5/240/ 8
BUOY 41010       0800   69 76   30/  8/ 12 1022.8S   4/ 7   3/340/ 7
ST AUGUSTINE FL  0800   58      60/ 10/ 12 1024.5F


$$


USA.gov is the U.S. government's official web portal to all federal, state and local government web resources and services.